timestamp,surface_pressure_avg,surface_temp_avg,battery_voltage,lat,long
2022-01-22 00:09:00+00:00,295.6847,2.9,12.49,47.84626,-54.09684
2022-01-22 00:19:00+00:00,293.8947,2.8,12.41,47.84626,-54.09684
2022-01-22 00:29:00+00:00,298.5814,2.87,12.41,47.84626,-54.09684
2022-01-22 00:39:00+00:00,307.4397,2.89,12.41,47.84626,-54.09684
2022-01-22 00:49:00+00:00,307.1564,2.95,12.41,47.84626,-54.09684
2022-01-22 00:59:00+00:00,308.053,2.91,12.41,47.84626,-54.09684
2022-01-22 01:09:00+00:00,313.8947,2.99,12.41,47.84626,-54.09684
2022-01-22 01:19:00+00:00,320.6746,3.08,12.41,47.84626,-54.09684
2022-01-22 01:29:00+00:00,320.1563,3.1,12.41,47.84626,-54.09684
2022-01-22 01:39:00+00:00,321.8812,3.01,12.41,47.84626,-54.09684
2022-01-22 01:49:00+00:00,324.9064,3.06,12.41,47.84626,-54.09684
2022-01-22 01:59:00+00:00,322.528,3.09,12.41,47.84626,-54.09684
2022-01-22 02:09:00+00:00,319.908,3.1,12.41,47.84626,-54.09684
2022-01-22 02:19:00+00:00,322.3697,3.09,12.41,47.84626,-54.09684
2022-01-22 02:29:00+00:00,324.5196,3.1,12.41,47.84626,-54.09684
2022-01-22 02:39:00+00:00,316.1414,3.0,12.41,47.84626,-54.09684
2022-01-22 02:49:00+00:00,308.8264,3.02,12.41,47.84626,-54.09684
2022-01-22 02:59:00+00:00,318.3264,3.09,12.41,47.84626,-54.09684
2022-01-22 03:09:00+00:00,325.6296,2.9,12.41,47.84626,-54.09684
2022-01-22 03:19:00+00:00,316.813,2.9,12.41,47.84626,-54.09684
2022-01-22 03:29:00+00:00,311.233,2.93,12.41,47.84626,-54.09684
2022-01-22 03:39:00+00:00,319.2964,3.07,12.41,47.84626,-54.09684
2022-01-22 03:49:00+00:00,320.3279,3.0,12.41,47.84626,-54.09684
2022-01-22 03:59:00+00:00,310.033,3.0,12.41,47.84626,-54.09684
2022-01-22 04:09:00+00:00,307.8096,3.0,12.41,47.84626,-54.09684
2022-01-22 04:19:00+00:00,308.9681,3.05,12.33,47.84626,-54.09684
2022-01-22 04:29:00+00:00,299.7297,3.0,12.33,47.84626,-54.09684
2022-01-22 04:39:00+00:00,288.5881,3.05,12.33,47.84626,-54.09684
2022-01-22 04:49:00+00:00,290.5397,3.06,12.33,47.84626,-54.09684
2022-01-22 04:59:00+00:00,285.0247,3.0,12.33,47.84626,-54.09684
2022-01-22 05:09:00+00:00,268.9547,2.92,12.33,47.84626,-54.09684
2022-01-22 05:19:00+00:00,261.8264,2.97,12.33,47.84626,-54.09684
2022-01-22 05:29:00+00:00,266.1747,2.97,12.33,47.84626,-54.09684
2022-01-22 05:39:00+00:00,256.1964,2.9,12.33,47.84626,-54.09684
2022-01-22 05:49:00+00:00,243.6431,2.77,12.33,47.84626,-54.09684
2022-01-22 05:59:00+00:00,238.4898,2.48,12.33,47.84626,-54.09684
2022-01-22 06:09:00+00:00,233.1781,2.6,12.33,47.84626,-54.09684
2022-01-22 06:19:00+00:00,221.1031,2.47,12.33,47.84626,-54.09684
2022-01-22 06:29:00+00:00,217.2881,2.4,12.33,47.84626,-54.09684
2022-01-22 06:39:00+00:00,215.7014,2.33,12.33,47.84626,-54.09684
2022-01-22 06:49:00+00:00,210.6431,2.3,12.33,47.84626,-54.09684
2022-01-22 06:59:00+00:00,206.3881,2.2,12.33,47.84626,-54.09684
2022-01-22 07:09:00+00:00,204.8148,2.2,12.33,47.84626,-54.09684
2022-01-22 07:19:00+00:00,202.8647,2.12,12.33,47.84626,-54.09684
2022-01-22 07:29:00+00:00,198.2631,2.1,12.33,47.84626,-54.09684
2022-01-22 07:39:00+00:00,193.9282,2.0,12.33,47.84626,-54.09684
2022-01-22 07:49:00+00:00,192.9365,1.9,12.33,47.84626,-54.09684
2022-01-22 07:59:00+00:00,192.6664,1.9,12.33,47.84626,-54.09684
2022-01-22 08:09:00+00:00,190.4282,2.26,12.33,47.84626,-54.09684
2022-01-22 12:19:00+00:00,285.608,3.0,13.84,47.84626,-54.09684
2022-01-22 12:29:00+00:00,290.6697,3.07,13.84,47.84626,-54.09684
2022-01-22 12:39:00+00:00,291.158,3.1,13.84,47.84626,-54.09684
2022-01-22 12:49:00+00:00,297.663,3.1,13.84,47.84626,-54.09684
2022-01-22 12:59:00+00:00,312.7147,3.1,13.84,47.84626,-54.09684
2022-01-22 13:09:00+00:00,316.0447,3.13,13.84,47.84626,-54.09684
2022-01-22 13:19:00+00:00,318.0963,3.16,14.4,47.84626,-54.09684
2022-01-22 13:29:00+00:00,326.423,3.19,14.4,47.84626,-54.09684
2022-01-22 13:39:00+00:00,333.8179,3.2,14.4,47.84626,-54.09684
2022-01-22 13:49:00+00:00,334.9547,3.16,14.4,47.84626,-54.09684
2022-01-22 13:59:00+00:00,341.3345,3.15,14.4,47.84626,-54.09684
2022-01-22 14:09:00+00:00,344.098,3.15,14.4,47.84626,-54.09684
2022-01-22 14:19:00+00:00,350.7779,3.16,14.8,47.84626,-54.09684
2022-01-22 14:29:00+00:00,352.12300000000016,3.2,14.8,47.84626,-54.09684
2022-01-22 14:39:00+00:00,348.5829,3.1,14.8,47.84626,-54.09684
2022-01-22 14:49:00+00:00,348.0912,3.19,14.8,47.84626,-54.09684
2022-01-22 14:59:00+00:00,351.0114,3.2,14.8,47.84626,-54.09684
2022-01-22 15:09:00+00:00,345.7013,3.1,14.8,47.84626,-54.09684
2022-01-22 15:19:00+00:00,333.793,3.1,14.8,47.84626,-54.09684
2022-01-22 15:29:00+00:00,337.9647,3.1,14.8,47.84626,-54.09684
2022-01-22 15:39:00+00:00,342.153,3.1,14.8,47.84626,-54.09684
2022-01-22 15:49:00+00:00,333.6996,3.0,14.8,47.84626,-54.09684
2022-01-22 15:59:00+00:00,330.7563,3.0,14.8,47.84626,-54.09684
2022-01-22 16:09:00+00:00,337.838,3.1,14.8,47.84626,-54.09684
2022-01-22 16:19:00+00:00,333.1813,2.96,14.72,47.84626,-54.09684
2022-01-22 16:29:00+00:00,316.453,2.9,14.72,47.84626,-54.09684
2022-01-22 16:39:00+00:00,310.2047,2.94,14.72,47.84626,-54.09684
2022-01-22 16:49:00+00:00,322.5163,2.69,14.72,47.84626,-54.09684
2022-01-22 16:59:00+00:00,316.7396,2.22,14.72,47.84626,-54.09684
2022-01-22 17:09:00+00:00,289.1548,2.23,14.72,47.84626,-54.09684
2022-01-22 17:19:00+00:00,285.3314,2.35,14.64,47.84626,-54.09684
2022-01-22 17:29:00+00:00,290.083,2.34,14.64,47.84626,-54.09684
2022-01-22 17:39:00+00:00,277.2564,2.39,14.64,47.84626,-54.09684
2022-01-22 17:49:00+00:00,264.8581,2.4,14.64,47.84626,-54.09684
2022-01-22 17:59:00+00:00,262.3631,2.98,14.64,47.84626,-54.09684
2022-01-22 18:09:00+00:00,255.2831,3.14,14.64,47.84626,-54.09684
2022-01-22 18:19:00+00:00,240.9348,3.18,14.56,47.84626,-54.09684
2022-01-22 18:29:00+00:00,230.9914,3.19,14.56,47.84626,-54.09684
2022-01-22 18:39:00+00:00,227.0398,3.2,14.56,47.84626,-54.09684
2022-01-22 18:49:00+00:00,220.5081,3.2,14.56,47.84626,-54.09684
2022-01-22 18:59:00+00:00,211.0148,3.2,14.56,47.84626,-54.09684
2022-01-22 19:09:00+00:00,198.2481,2.92,14.56,47.84626,-54.09684
2022-01-22 19:19:00+00:00,192.8681,2.65,14.32,47.84626,-54.09684
2022-01-22 19:29:00+00:00,198.0081,2.7,14.32,47.84626,-54.09684
2022-01-22 19:39:00+00:00,196.5665,2.6,14.32,47.84626,-54.09684
2022-01-22 19:49:00+00:00,183.7932,2.5,14.32,47.84626,-54.09684
2022-01-22 19:59:00+00:00,181.3798,2.5,14.32,47.84626,-54.09684
2022-01-22 20:09:00+00:00,188.8415,2.6,14.32,47.84626,-54.09684
2022-01-22 20:19:00+00:00,187.6848,2.63,13.68,47.84626,-54.09684
2022-01-22 20:29:00+00:00,177.2881,2.68,13.68,47.84626,-54.09684
2022-01-22 20:39:00+00:00,180.4415,2.7,13.68,47.84626,-54.09684
2022-01-22 20:49:00+00:00,190.8315,2.72,13.68,47.84626,-54.09684
2022-01-22 20:59:00+00:00,189.2431,2.78,13.68,47.84626,-54.09684
2022-01-22 21:09:00+00:00,182.4765,2.74,13.68,47.84626,-54.09684
2022-01-22 21:19:00+00:00,182.7115,2.76,13.21,47.84626,-54.09684
2022-01-22 21:29:00+00:00,188.2031,2.8,13.21,47.84626,-54.09684
2022-01-22 21:39:00+00:00,186.2031,2.83,13.21,47.84626,-54.09684
2022-01-22 21:49:00+00:00,185.6065,2.88,13.21,47.84626,-54.09684
2022-01-22 21:59:00+00:00,204.2164,2.89,13.21,47.84626,-54.09684
2022-01-22 22:09:00+00:00,218.6098,2.9,13.21,47.84626,-54.09684
2022-01-22 22:19:01+00:00,215.6031,2.9,12.89,47.84626,-54.09684
2022-01-22 22:29:01+00:00,210.2248,2.87,12.89,47.84626,-54.09684
2022-01-22 22:39:01+00:00,222.1031,2.91,12.89,47.84626,-54.09684
2022-01-22 22:49:01+00:00,233.3514,3.1,12.89,47.84626,-54.09684
2022-01-22 22:59:01+00:00,245.6948,2.86,12.89,47.84626,-54.09684
2022-01-22 23:09:01+00:00,251.6981,2.56,12.89,47.84626,-54.09684
2022-01-22 23:19:00+00:00,247.6297,2.95,12.65,47.84626,-54.09684
2022-01-22 23:29:00+00:00,242.7848,2.9,12.65,47.84626,-54.09684
2022-01-22 23:39:00+00:00,247.8047,2.9,12.65,47.84626,-54.09684
2022-01-22 23:49:00+00:00,253.8131,3.0,12.65,47.84626,-54.09684
2022-01-22 23:59:00+00:00,250.6447,3.1,12.65,47.84626,-54.09684
